[[{"header":{"parameterUnit":"m.s-1","parameterCategory":1,"la1":30.2992,"la2":30.254,"lo1":-89.0895,"lo2":-89.0443,"dy":0.0025,"dx":0.0025,"nx":19,"ny":19,"refTime":"2026-03-19T03:00:00:Z","depth":0,"parameterNumber":2,"parameterNumberName":"U-component_of_WINDS"},"data":[0,0,0,2.0662,2.0664,2.0739,2.0739,2.0834,2.0834,0,0,0,0,0,0,0,0,0,0,0,2.0641,2.0642,2.0662,2.0664,2.0739,2.0739,2.0833,2.0834,0,0,0,0,0,0,0,0,0,0,0,2.0641,2.0642,2.0643,2.0664,2.0739,2.0739,2.0833,2.0777,0,0,0,0,0,0,0,0,0,0,2.0704,2.0687,2.0642,2.0643,2.0665,2.0739,2.0739,2.0774,2.078,2.08,0,2.082,0,2.0829,2.0841,2.0841,0,0,0,2.0662,2.0682,2.0701,2.0643,2.0665,2.0739,2.0704,2.0777,2.0784,2.0808,2.0821,2.0824,2.083,2.0842,2.0842,2.0962,2.0963,0,0,2.0658,2.0655,2.0696,2.0705,2.0696,2.0702,2.0707,2.0782,2.0795,2.0821,2.0827,2.0832,2.0842,2.0843,2.0962,2.0962,0,0,0,2.0647,2.0653,2.067,2.0701,2.0715,2.0704,2.071,2.0791,2.0797,2.0828,2.0833,2.0843,2.0844,2.0961,2.0962,2.0989,0,0,0,2.0645,2.0646,2.0668,2.0667,2.0714,2.0755,2.0718,2.0792,2.0801,2.0832,2.0843,2.0845,2.096,2.0961,2.0987,2.1002,0,0,0,2.0636,2.0645,2.0657,2.0667,2.0699,2.0754,2.0764,2.0794,2.0804,2.0841,2.0845,2.096,2.0961,2.0985,2.0999,2.103,0,0,0,2.0625,2.0681,2.0657,2.0721,2.0698,2.0771,2.0763,2.0818,2.0853,2.0843,2.096,2.0962,2.0984,2.0997,2.1028,2.1055,2.1067,0,0,2.0694,2.069,2.0727,2.0708,2.0784,2.076,2.0839,2.0874,2.088,2.0934,2.0937,2.0987,2.0998,2.103,2.1137,2.1146,0,0,0,2.0748,2.0775,2.0796,2.0829,2.0858,2.0881,2.0905,2.0917,2.0963,2.0908,2.1009,2.1015,2.1034,2.1046,2.1054,2.1069,2.0968,2.0968,2.0968,2.0841,2.0845,2.0906,2.0918,2.0951,2.0973,2.0998,2.1018,2.1014,2.1038,2.1053,2.1117,2.1132,2.1138,2.1153,2.1069,2.107,2.107,2.107,2.094,2.0977,2.0968,2.1024,2.1027,2.1073,2.1095,2.109,2.1131,2.1107,2.1123,2.1094,2.1148,2.1161,2.1072,2.1071,2.1071,2.1071,2.1071,2.0999,2.1017,2.1032,2.1078,2.1113,2.1123,2.1163,2.1165,2.1166,2.1183,2.1197,2.1196,2.1194,2.119,2.119,2.119,2.119,2.1191,2.1191,2.1054,2.1069,2.1103,2.1136,2.1155,2.1182,2.1202,2.1221,2.1242,2.124,2.124,2.123,2.1154,2.1133,2.1194,2.1194,2.1193,2.1193,2.1193,2.115,2.1128,2.118,2.12,2.1236,2.1268,2.127,2.1307,2.1323,2.1342,2.1329,2.1273,2.1268,2.1261,2.1244,2.133,2.133,2.133,2.133,2.1198,2.1195,2.1247,2.1278,2.1308,2.1314,2.1369,2.1384,2.1396,2.1405,2.1394,2.1371,2.1365,2.1363,2.1355,2.1338,2.1447,2.1447,2.1447,2.1255,2.1255,2.1303,2.1315,2.1342,2.1364,2.1415,2.1448,2.1458,2.1452,2.1412,2.1407,2.1371,2.136,2.1351,2.1338,2.1308,0,0]},{"header":{"parameterUnit":"m.s-1","parameterCategory":1,"la1":30.2992,"la2":30.254,"lo1":-89.0895,"lo2":-89.0443,"dy":0.0025,"dx":0.0025,"nx":19,"ny":19,"refTime":"2026-03-19T03:00:00:Z","depth":0,"parameterNumber":3,"parameterNumberName":"V-component_of_WINDS"},"data":[0,0,0,-0.5107,-0.5108,-0.5164,-0.5165,-0.5224,-0.5225,0,0,0,0,0,0,0,0,0,0,0,-0.5081,-0.5081,-0.5107,-0.5108,-0.5164,-0.5165,-0.5224,-0.5225,0,0,0,0,0,0,0,0,0,0,0,-0.5081,-0.5081,-0.5082,-0.5108,-0.5164,-0.5165,-0.5224,-0.5186,0,0,0,0,0,0,0,0,0,0,-0.5133,-0.5101,-0.5081,-0.5082,-0.5108,-0.5164,-0.5165,-0.5185,-0.5189,-0.5193,0,-0.5194,0,-0.521,-0.5228,-0.5228,0,0,0,-0.5114,-0.5098,-0.5121,-0.5082,-0.5109,-0.5164,-0.5141,-0.5187,-0.5191,-0.5198,-0.5195,-0.5197,-0.5211,-0.5228,-0.5228,-0.5231,-0.523,0,0,-0.5111,-0.5087,-0.5118,-0.5123,-0.5113,-0.5139,-0.5142,-0.519,-0.5185,-0.5195,-0.5199,-0.5212,-0.5228,-0.5229,-0.5231,-0.5231,0,0,0,-0.5098,-0.5084,-0.5107,-0.5121,-0.5132,-0.514,-0.5144,-0.5183,-0.5192,-0.52,-0.5213,-0.5229,-0.5229,-0.5231,-0.5231,-0.5192,0,0,0,-0.5096,-0.5077,-0.5105,-0.5091,-0.5131,-0.5158,-0.5136,-0.5189,-0.5195,-0.5212,-0.5229,-0.523,-0.5232,-0.5231,-0.5194,-0.5177,0,0,0,-0.5081,-0.5075,-0.508,-0.5089,-0.5113,-0.5158,-0.517,-0.5191,-0.5202,-0.5228,-0.523,-0.5232,-0.5231,-0.5195,-0.518,-0.5171,0,0,0,-0.5057,-0.5045,-0.5079,-0.5071,-0.5112,-0.5133,-0.517,-0.5187,-0.5204,-0.5229,-0.5232,-0.5231,-0.5196,-0.5182,-0.5172,-0.5158,-0.515,0,0,-0.5028,-0.504,-0.5038,-0.507,-0.5078,-0.5126,-0.513,-0.5169,-0.5194,-0.5217,-0.5218,-0.5193,-0.518,-0.5171,-0.5114,-0.5107,0,0,0,-0.502,-0.5018,-0.5025,-0.504,-0.507,-0.5094,-0.5136,-0.5151,-0.5171,-0.5201,-0.5188,-0.5182,-0.5177,-0.5171,-0.5166,-0.5164,-0.5227,-0.5227,-0.5227,-0.4943,-0.4976,-0.4974,-0.5014,-0.5028,-0.5072,-0.5087,-0.5114,-0.5143,-0.514,-0.5146,-0.5107,-0.51,-0.5096,-0.5093,-0.5142,-0.5142,-0.5142,-0.5142,-0.4904,-0.4905,-0.4945,-0.4956,-0.4992,-0.5002,-0.5044,-0.5065,-0.508,-0.5105,-0.5103,-0.5126,-0.5087,-0.5087,-0.5139,-0.514,-0.514,-0.514,-0.514,-0.4856,-0.4863,-0.4881,-0.4907,-0.4924,-0.4966,-0.4979,-0.5011,-0.5041,-0.5039,-0.505,-0.5051,-0.5055,-0.5042,-0.5042,-0.5042,-0.5042,-0.5042,-0.5042,-0.4799,-0.4822,-0.4828,-0.486,-0.4874,-0.4898,-0.4942,-0.4958,-0.4983,-0.5006,-0.5006,-0.5035,-0.5077,-0.5087,-0.504,-0.504,-0.504,-0.5041,-0.5041,-0.4746,-0.4763,-0.4773,-0.4788,-0.4828,-0.4843,-0.4884,-0.4914,-0.4931,-0.4937,-0.4968,-0.4994,-0.5009,-0.5013,-0.5022,-0.496,-0.496,-0.496,-0.496,-0.4705,-0.4716,-0.4734,-0.4756,-0.4781,-0.4819,-0.4831,-0.4866,-0.4906,-0.4919,-0.4933,-0.4947,-0.495,-0.4963,-0.4969,-0.4977,-0.4906,-0.4906,-0.4906,-0.4674,-0.4689,-0.4692,-0.473,-0.4765,-0.4793,-0.4806,-0.483,-0.4878,-0.4904,-0.493,-0.4932,-0.4955,-0.4961,-0.4986,-0.4995,-0.501,0,0]}]]